Stations météo

réclame
Mon MeteoGroup
Hoogeveen aws, Pays-Bas (6279): Température de l'air & dewpoint: 19.11.2017 02:00:00 - 25.11.2017 02:00:00 (CET)Hoogeveen aws, Pays-Bas (6279): Température de l'air 5cm: 19.11.2017 02:00:00 - 25.11.2017 02:00:00 (CET)Hoogeveen aws, Pays-Bas (6279): Vitesse du vent & gusts: 19.11.2017 02:00:00 - 25.11.2017 02:00:00 (CET)Hoogeveen aws, Pays-Bas (6279): Direction du vent: 19.11.2017 02:00:00 - 25.11.2017 02:00:00 (CET)Hoogeveen aws, Pays-Bas (6279): reduced air pressure: 19.11.2017 02:00:00 - 25.11.2017 02:00:00 (CET)Hoogeveen aws, Pays-Bas (6279): visibility: 19.11.2017 02:00:00 - 25.11.2017 02:00:00 (CET)Hoogeveen aws, Pays-Bas (6279): Quantités de précipitations: 19.11.2017 02:00:00 - 25.11.2017 02:00:00 (CET)
Date & Time tt [°C] td [°C] tt 5cm [°C] ff [km/h] ff [knt] fx [km/h] fx [knt] dd ppp [hPa] vv [km] rr [mm]
25.11.2017 02:00:00 2,8 2,7 1,9 0 0 7 4 N 1011,1 0,6 0,0
25.11.2017 01:00:00 2,7 2,5 1,5 4 2 - - SSE 1011,4 0,7 0,0
25.11.2017 00:00:00 3,3 3,2 2,0 4 2 7 4 WSW 1011,8 2,3 0,0
24.11.2017 23:00:00 3,5 3,4 1,8 4 2 7 4 SSW 1012,0 5 0,0
24.11.2017 22:00:00 3,6 3,3 1,7 4 2 - - SW 1011,8 6 0,0
24.11.2017 21:00:00 3,4 3,0 2,3 7 4 11 6 SSW 1011,9 7 0,0
24.11.2017 20:00:00 3,7 3,5 2,0 4 2 11 6 SW 1011,9 10 0,0
24.11.2017 19:00:00 4,3 3,7 2,8 7 4 - - SW 1011,5 19 0,0
24.11.2017 18:00:00 5,5 4,6 4,3 7 4 18 10 SW 1011,3 31 0,0
24.11.2017 17:00:00 6,1 4,6 4,9 11 6 18 10 SW 1011,0 40 0,0
24.11.2017 16:00:00 7,7 5,5 7,1 11 6 - - SW 1010,7 44 0,0
24.11.2017 15:00:00 8,1 5,8 7,7 14 8 22 12 WSW 1010,1 46 0,0
24.11.2017 14:00:00 8,0 5,3 7,7 14 8 22 12 SW 1009,6 41 0,0
24.11.2017 13:00:00 7,8 6,0 7,8 11 6 - - SW 1009,5 44 0,0
24.11.2017 12:00:00 7,3 5,8 7,3 11 6 18 10 SSW 1008,9 39 0,0
24.11.2017 11:00:00 7,2 5,8 7,0 11 6 22 12 W 1009,0 18 0,3
24.11.2017 10:00:00 7,0 6,2 6,8 14 8 - - W 1007,9 8 0,4
24.11.2017 09:00:00 6,8 6,2 6,4 7 4 11 6 SW 1007,0 10 0,0
24.11.2017 08:00:00 6,4 6,0 6,0 7 4 11 6 WSW 1006,7 15 0,1
24.11.2017 07:00:00 6,6 6,0 6,3 7 4 - - S 1005,9 14 0,5
24.11.2017 06:00:00 6,9 6,3 6,6 7 4 14 8 SSW 1006,1 13 0,5
24.11.2017 05:00:00 7,2 6,3 6,8 7 4 18 10 SW 1006,2 10 1,5
24.11.2017 04:00:00 7,6 5,6 6,9 14 8 - - SSW 1006,7 19 0,0
24.11.2017 03:00:00 7,7 5,4 6,9 14 8 22 12 SSW 1006,6 20 0,0
24.11.2017 02:00:00 7,6 5,3 6,8 14 8 25 14 SSW 1006,7 21 0,0
24.11.2017 01:00:00 7,7 5,2 7,0 18 10 - - SSW 1007,1 24 0,0
24.11.2017 00:00:00 7,8 5,0 6,9 18 10 29 16 S 1006,8 23 0,0
23.11.2017 23:00:00 7,8 5,1 6,9 18 10 32 18 SSW 1006,7 27 0,0
23.11.2017 22:00:00 7,1 4,7 5,8 18 10 - - SSW 1006,4 29 0,0
23.11.2017 21:00:00 7,0 4,4 5,7 14 8 25 14 SSW 1006,1 32 0,0
23.11.2017 20:00:00 7,3 4,4 5,8 14 8 29 16 SSW 1005,5 34 0,0
23.11.2017 19:00:00 8,2 5,1 6,8 18 10 - - SW 1004,7 32 0,0
23.11.2017 18:00:00 9,0 6,3 7,7 18 10 36 19 SW 1003,8 33 0,0
23.11.2017 17:00:00 9,9 8,1 8,9 18 10 36 19 WSW 1002,5 27 0,0
23.11.2017 16:00:00 10,2 8,5 9,5 18 10 - - WSW 1001,5 35 0,9
23.11.2017 15:00:00 11,9 10,9 11,4 36 19 50 27 SW 999,4 6 2,0
23.11.2017 14:00:00 12,4 10,9 11,9 29 16 47 25 SSW 998,2 34 0,2
23.11.2017 13:00:00 12,8 10,1 12,5 29 16 - - SSW 997,7 43 0,0
23.11.2017 12:00:00 13,0 9,1 12,3 32 18 58 31 SSW 996,8 45 0,0
23.11.2017 11:00:00 13,0 7,0 12,0 36 19 54 29 S 995,8 47 0,0
23.11.2017 10:00:00 12,8 6,1 11,8 32 18 - - S 995,3 48 0,0
23.11.2017 09:00:00 12,3 5,4 11,1 36 19 50 27 S 995,3 47 0,0
23.11.2017 08:00:00 11,6 4,9 10,5 32 18 50 27 S 995,3 47 0,0
23.11.2017 07:00:00 11,3 4,4 10,3 29 16 - - S 995,7 49 0,0
23.11.2017 06:00:00 11,0 4,0 9,6 29 16 47 25 S 996,2 49 0,0
23.11.2017 05:00:00 11,0 3,8 9,6 32 18 50 27 S 996,7 46 0,0
23.11.2017 04:00:00 11,2 4,0 10,1 25 14 - - S 997,1 50 0,0
23.11.2017 03:00:00 10,9 4,0 9,6 25 14 40 21 S 997,7 49 0,0
23.11.2017 02:00:00 10,9 3,8 9,6 25 14 43 23 S 998,4 50 0,0
23.11.2017 01:00:00 10,9 3,6 9,3 32 18 - - S 998,7 48 0,0
23.11.2017 00:00:00 9,9 3,8 8,5 25 14 43 23 S 999,2 49 0,0
22.11.2017 23:00:00 10,0 4,2 8,6 25 14 47 25 S 999,7 45 0,0
22.11.2017 22:00:00 10,1 4,7 8,8 25 14 - - S 1000,2 45 0,0
22.11.2017 21:00:00 10,5 5,1 9,1 25 14 47 25 S 1000,3 42 0,0
22.11.2017 20:00:00 10,3 5,9 8,9 25 14 40 21 S 1000,9 36 0,0
22.11.2017 19:00:00 10,5 6,6 8,9 25 14 - - S 1001,4 25 0,0
22.11.2017 18:00:00 10,4 7,0 8,9 25 14 36 19 S 1001,7 19 0,0
22.11.2017 17:00:00 10,3 7,4 9,0 22 12 36 19 S 1002,3 15 0,0
22.11.2017 16:00:00 10,9 7,8 9,8 22 12 - - S 1002,9 16 0,0
22.11.2017 15:00:00 11,7 8,5 11,1 22 12 36 19 S 1003,5 16 0,0
22.11.2017 14:00:00 11,8 8,7 11,2 29 16 47 25 SSW 1004,0 16 0,0
22.11.2017 13:00:00 11,6 8,7 11,3 25 14 - - SSW 1004,3 17 0,0
22.11.2017 12:00:00 11,4 8,9 11,0 25 14 40 21 SSW 1004,7 15 0,0
22.11.2017 11:00:00 11,2 8,9 10,6 25 14 40 21 SSW 1004,7 16 0,0
22.11.2017 10:00:00 10,8 8,9 10,1 25 14 - - SSW 1004,2 14 0,3
22.11.2017 09:00:00 10,3 9,2 9,7 25 14 40 21 SSW 1003,9 9 0,5
22.11.2017 08:00:00 10,1 9,4 9,7 22 12 47 25 SSW 1003,8 4,2 0,5
22.11.2017 07:00:00 10,5 9,1 9,9 29 16 - - SSW 1003,4 9 0,0
22.11.2017 06:00:00 10,5 9,2 9,9 29 16 43 23 SW 1003,8 8 0,1
22.11.2017 05:00:00 10,1 9,3 9,7 29 16 47 25 SSW 1003,7 2,4 0,2
22.11.2017 04:00:00 9,9 9,1 9,5 25 14 - - SSW 1004,0 3,1 0,1
22.11.2017 03:00:00 10,4 8,8 9,9 29 16 43 23 SW 1004,5 11 0,0
22.11.2017 02:00:00 10,3 9,0 9,7 25 14 36 19 SSW 1004,7 8 0,3
22.11.2017 01:00:00 9,9 9,1 9,5 22 12 - - SSW 1005,2 4,5 0,3
22.11.2017 00:00:00 10,1 9,0 9,6 25 14 36 19 SSW 1005,5 7 0,1
21.11.2017 23:00:00 10,1 9,1 9,7 25 14 40 21 SSW 1006,0 5 0,0
21.11.2017 22:00:00 10,8 9,1 10,3 29 16 - - SW 1006,5 9 0,0
21.11.2017 21:00:00 11,4 9,6 10,8 22 12 40 21 SW 1006,6 10 0,0
21.11.2017 20:00:00 11,5 9,9 11,0 25 14 43 23 SW 1007,0 12 0,0
21.11.2017 19:00:00 11,6 10,3 11,0 22 12 - - WSW 1007,2 9 0,0
21.11.2017 18:00:00 11,4 10,7 11,0 29 16 43 23 WSW 1007,3 3,3 0,2
21.11.2017 17:00:00 11,4 10,8 11,0 25 14 43 23 WSW 1007,3 3,1 0,7
21.11.2017 16:00:00 11,6 11,1 11,3 22 12 - - WSW 1007,4 3,0 2,4
21.11.2017 15:00:00 11,9 11,3 11,5 22 12 32 18 WSW 1007,3 7 1,6
21.11.2017 14:00:00 11,3 11,1 11,2 11 6 18 10 SSW 1007,7 2,3 1,7
21.11.2017 13:00:00 11,2 10,8 11,0 11 6 - - SW 1008,3 3,8 0,8
21.11.2017 12:00:00 11,1 10,6 10,9 14 8 22 12 WSW 1009,1 6 1,3
21.11.2017 11:00:00 11,0 10,6 10,8 11 6 25 14 SW 1009,5 4,3 0,3
21.11.2017 10:00:00 10,8 10,4 10,4 14 8 - - WSW 1009,5 4,6 0,2
21.11.2017 09:00:00 10,4 10,1 10,0 14 8 22 12 SW 1009,3 3,1 0,2
21.11.2017 08:00:00 10,1 9,7 9,8 11 6 18 10 WSW 1009,2 4,7 0,1
21.11.2017 07:00:00 10,1 9,6 9,7 11 6 - - WSW 1009,1 2,2 0,1
21.11.2017 06:00:00 10,3 9,6 9,8 14 8 25 14 WSW 1009,1 9 0,0
21.11.2017 05:00:00 10,3 9,7 9,9 14 8 25 14 WSW 1009,0 9 0,0
21.11.2017 04:00:00 10,2 9,8 9,8 14 8 - - WSW 1009,1 8 0,0
21.11.2017 03:00:00 10,1 9,7 9,7 14 8 22 12 WSW 1008,7 7 0,5
21.11.2017 02:00:00 9,9 9,5 9,6 14 8 22 12 W 1008,7 2,7 0,5
21.11.2017 01:00:00 10,2 9,6 9,7 18 10 - - W 1008,5 9 0,0
21.11.2017 00:00:00 10,4 9,9 9,9 18 10 25 14 W 1008,0 10 0,0
20.11.2017 23:00:00 10,5 10,0 9,9 18 10 29 16 W 1007,9 6 0,0
20.11.2017 22:00:00 10,4 9,9 9,7 22 12 - - WSW 1007,7 10 0,6
20.11.2017 21:00:00 8,7 8,5 8,0 14 8 22 12 SW 1007,5 3,9 1,1
20.11.2017 20:00:00 7,6 7,5 7,2 14 8 22 12 SSW 1007,9 2,7 2,1
20.11.2017 19:00:00 6,8 6,6 6,4 11 6 - - SSW 1008,1 3,6 1,7
20.11.2017 18:00:00 6,1 5,8 5,8 14 8 22 12 S 1008,6 3,2 0,1
20.11.2017 17:00:00 5,4 5,1 5,2 18 10 29 16 S 1009,6 3,4 1,0
20.11.2017 16:00:00 5,0 4,6 4,8 18 10 - - S 1010,4 3,9 1,5
20.11.2017 15:00:00 4,9 4,2 4,7 18 10 29 16 S 1011,4 10 0,8
20.11.2017 14:00:00 4,7 4,0 4,6 14 8 29 16 S 1012,9 7 0,5
20.11.2017 13:00:00 4,8 4,0 4,7 18 10 - - S 1014,4 10 0,9
20.11.2017 12:00:00 5,0 4,1 4,9 18 10 29 16 SSW 1015,5 8 0,5
20.11.2017 11:00:00 5,1 4,5 5,0 14 8 22 12 SSW 1016,2 9 0,4
20.11.2017 10:00:00 4,7 4,0 4,6 11 6 - - SSW 1016,8 13 0,6
20.11.2017 09:00:00 4,8 3,4 4,4 11 6 32 18 SW 1017,3 14 0,2
20.11.2017 08:00:00 5,6 2,7 5,1 25 14 40 21 W 1017,6 24 0,0
20.11.2017 07:00:00 5,7 4,3 5,2 14 8 - - SW 1017,3 21 0,0
20.11.2017 06:00:00 6,0 3,9 5,4 14 8 22 12 WSW 1017,5 26 0,0
20.11.2017 05:00:00 5,4 3,9 4,6 14 8 22 12 WSW 1017,6 21 0,0
20.11.2017 04:00:00 5,2 4,2 4,6 7 4 - - W 1017,9 22 0,0
20.11.2017 03:00:00 5,2 4,1 4,8 14 8 22 12 SW 1018,2 21 0,0
20.11.2017 02:00:00 5,5 4,2 5,0 14 8 29 16 WSW 1018,6 26 0,1
20.11.2017 01:00:00 5,2 3,7 4,3 14 8 - - WSW 1018,6 17 0,0
20.11.2017 00:00:00 4,7 3,2 3,6 14 8 22 12 WSW 1018,7 25 0,0
19.11.2017 23:00:00 5,6 3,4 4,8 14 8 32 18 W 1018,9 22 0,0
19.11.2017 22:00:00 5,8 3,3 4,4 22 12 - - W 1018,8 20 0,0
19.11.2017 21:00:00 4,8 2,6 3,6 14 8 25 14 W 1018,3 18 0,0
19.11.2017 20:00:00 5,1 2,3 3,9 18 10 25 14 W 1017,6 18 0,0
19.11.2017 19:00:00 4,9 2,4 3,8 18 10 - - WSW 1017,2 16 0,0
19.11.2017 18:00:00 6,0 3,0 4,9 18 10 32 18 W 1016,7 17 0,0
19.11.2017 17:00:00 6,3 2,6 5,1 22 12 32 18 W 1016,1 18 0,0
19.11.2017 16:00:00 6,8 3,2 5,7 18 10 - - W 1015,6 22 0,0
19.11.2017 15:00:00 8,0 3,3 7,2 25 14 40 21 WNW 1015,5 21 0,0
19.11.2017 14:00:00 8,3 3,7 8,2 25 14 40 21 W 1015,1 20 0,0
19.11.2017 13:00:00 8,2 4,6 7,2 25 14 - - WNW 1014,7 19 0,3
19.11.2017 12:00:00 8,2 4,3 8,1 25 14 43 23 WNW 1014,5 40 0,0
19.11.2017 11:00:00 7,9 3,7 7,2 25 14 47 25 W 1013,8 39 0,0
19.11.2017 10:00:00 6,6 4,0 5,7 22 12 - - W 1013,4 23 0,1
19.11.2017 09:00:00 5,3 3,8 4,7 18 10 36 19 W 1013,4 9 0,7
19.11.2017 08:00:00 5,1 2,8 3,7 25 14 36 19 W 1013,0 24 0,0
19.11.2017 07:00:00 4,6 2,3 3,4 22 12 - - W 1012,5 30 0,0
19.11.2017 06:00:00 4,6 3,0 3,4 18 10 29 16 W 1012,4 28 0,0
19.11.2017 05:00:00 4,4 3,1 3,6 18 10 29 16 WSW 1012,3 31 0,7
19.11.2017 04:00:00 4,4 2,7 3,7 14 8 - - W 1012,8 18 0,7
19.11.2017 03:00:00 4,6 1,9 3,6 18 10 25 14 W 1013,1 26 0,0
19.11.2017 02:00:00 3,8 1,3 2,5 18 10 25 14 WSW 1012,6 30 0,0

tt = Température de l'air
td = dewpoint
tt 5cm = Température de l'air 5cm
ff = Vitesse du vent
fx = gusts
dd = Direction du vent
ppp = reduced air pressure
vv = visibility
rr = Quantités de précipitations

stations d'obs. à proximité